Погода в Новокарасуке

Россия / Омская область     56°15′53″N   71°48′29″E
темп.,
°C
ветер,
м/с
пор.,
м/с
влажн.,
%
обл.,
%
осадки,
мм/ч
давл.,
гПа
погр.,
м
13 апреля, вт
вт1300:00+2с599989 0.2 1034150
03:00−2сз34944 0.0 103634
06:00−2сз34920 0.0 103849
09:00+1зсз36924 0.0 1039116
12:00+3з489957 0.0 1039204
15:00+6зсз58725 0.0 1038546
18:00+6з34775 0.0 103763
21:00+3з448118 0.0 103732
14 апреля, ср
ср1400:00+2зюз478499 0.0 103688
03:00+1зюз49885 0.0 1035120
06:00+2зюз61390100 0.0 1033216
09:00+4зюз71486100 0.0 1032328
12:00+8зюз71383100 0.0 1029424
15:00+11з7117998 0.0 1028530
18:00+11з58795 0.0 1027223
21:00+8зюз458898 0.0 102740
15 апреля, чт
чт1500:00+8з2393100 0.0 102619
03:00+7зюз34939 0.0 102642
06:00+6зюз459518 0.0 102563
09:00+8зюз489222 0.0 1025198
12:00+12з68659 0.1 1023746
15:00+14з68545 0.0 1022972
18:00+14з57605 0.0 1020403
21:00+10зюз45765 0.0 101956
16 апреля, пт
пт1600:00+9зюз4109187 0.0 1018154
03:00+8зюз489241 0.0 1016131
06:00+6зюз479268 0.0 1015101
09:00+8зюз4884100 0.0 1015187
12:00+12з4671100 0.0 1013424
15:00+13з3462100 0.0 1012896
18:00+8св71085100 0.1 1013407
21:00+4св71188100 0.0 1014376
17 апреля, сб
сб1700:00+3всв71190100 0.0 1013477
03:00+2всв71291100 0.2 1011515
06:000всв81395100 0.7 1010588
09:00−3св91395100 1.5 1010717
12:00−4всв91494100 6.4 1009560
15:00−3св81194100 3.1 1010775
18:00−3св81395100 5.3 1011775
21:00−5св91491100 0.6 1012728